Point Lay, AK

3:38 AM AKDT on May 27, 2017 (GMT -0800)
Point Lay

Weather History for PPIZ - December, 2011

Change the Weather History Date:

Saturday, December 31, 2011

  Actual Average Record
Temperature  
Mean Temperature -21 °F -  
Max Temperature -15 °F -5 °F 23 °F (2003)
Min Temperature -27 °F -14 °F -38 °F (2006)
Degree Days  
Heating Degree Days 86    
Moisture  
Dew Point -26 °F    
Average Humidity 74    
Maximum Humidity 84    
Minimum Humidity 69    
Precipitation  
Precipitation 0.00 in - - ()
Sea Level Pressure  
Sea Level Pressure 29.94 in    
Wind  
Wind Speed 10 mph (SSW)    
Max Wind Speed 15 mph    
Max Gust Speed -    
Visibility 10 miles    
Events      
Averages and records for this station are not official NWS values.
T = Trace of Precipitation, MM = Missing Value Source: NWS Daily Summary

Daily Weather History Graph

Daily Weather History Graph

Search for Another Location

Airport or City:

Trip Planner

Search our weather history database for the weather conditions in past years. The results will help you decide how hot, cold, wet, or windy it might be!

Date:

Astronomy

Dec. 31, 1969 Rise Set
Actual Time Sun does not set Sun does not set
Civil Twilight 11:37 AM AKST 4:12 PM AKST
Nautical Twilight 9:55 AM AKST 5:55 PM AKST
Astronomical Twilight 8:37 AM AKST 7:13 PM AKST
Moon 12:12 PM AKST (12/31) 2:00 AM AKST (12/31)
Length of Visible Light 4h 35m
Length of Day
0h 00m
Waxing Crescent, 46% of the Moon is Illuminated
Dec 31
Waxing Crescent
Dec 31
First Quarter
Jan 8
Full
Jan 16
Last Quarter
Jan 22
New

Hourly Weather History & Observations

Time (AKST) Temp. Windchill Dew Point Humidity Pressure Visibility Wind Dir Wind Speed Gust Speed Precip Events Conditions
12:56 AM -27.9 °F -46.6 °F -33.9 °F 73% 29.81 in 10.0 mi South 6.9 mph - N/A   Clear
1:56 AM -26.9 °F -46.9 °F -33.9 °F 69% 29.82 in 10.0 mi South 8.1 mph - N/A   Clear
2:56 AM -26.9 °F -43.4 °F -33.9 °F 69% 29.84 in 7.0 mi South 5.8 mph - N/A   Clear
3:56 AM -26.0 °F -44.2 °F -33.0 °F 69% 29.84 in 9.0 mi South 6.9 mph - N/A   Clear
4:56 AM -26.0 °F -44.2 °F -33.0 °F 69% 29.84 in 10.0 mi South 6.9 mph - N/A   Clear
5:56 AM -26.9 °F -41.2 °F -33.0 °F 73% 29.86 in 10.0 mi SSW 4.6 mph - N/A   Clear
6:56 AM -15.9 °F - -20.9 °F 78% 29.87 in 10.0 mi North - - N/A   Partly Cloudy
7:15 AM -16.6 °F -36.8 °F -20.2 °F 84% 29.86 in 7.0 mi SW 10.4 mph - N/A   Mostly Cloudy
7:56 AM -15.9 °F -37.0 °F -22.0 °F 74% 29.88 in 5.0 mi SW 11.5 mph - N/A   Haze
8:45 AM -16.6 °F -37.9 °F -22.0 °F 76% 29.88 in 10.0 mi SW 11.5 mph - N/A   Scattered Clouds
8:56 AM -15.9 °F -37.0 °F -22.0 °F 74% 29.90 in 10.0 mi SW 11.5 mph - N/A   Clear
9:19 AM -16.6 °F -37.9 °F -22.0 °F 76% 29.90 in 10.0 mi SW 11.5 mph - N/A   Partly Cloudy
9:56 AM -17.0 °F -39.3 °F -22.9 °F 74% 29.92 in 8.0 mi SW 12.7 mph - N/A   Clear
10:56 AM -15.9 °F -37.0 °F -22.0 °F 74% 29.94 in 10.0 mi SW 11.5 mph - N/A   Clear
11:56 AM -17.0 °F -40.2 °F -22.0 °F 78% 29.95 in 10.0 mi SW 13.8 mph - N/A   Clear
12:47 PM -16.6 °F -37.9 °F -23.8 °F 70% 29.94 in 10.0 mi SW 11.5 mph - N/A   Partly Cloudy
12:56 PM -17.0 °F -38.4 °F -22.9 °F 74% 29.96 in 10.0 mi SW 11.5 mph - N/A   Partly Cloudy
1:56 PM -15.9 °F -36.0 °F -22.0 °F 74% 29.98 in 9.0 mi SW 10.4 mph - N/A   Clear
2:56 PM -15.9 °F -38.0 °F -22.0 °F 74% 29.99 in 10.0 mi SW 12.7 mph - N/A   Clear
3:56 PM -17.0 °F -41.1 °F -22.9 °F 74% 30.01 in 10.0 mi SSW 15.0 mph - N/A   Clear
4:56 PM -17.9 °F -40.5 °F -24.0 °F 74% 30.01 in 10.0 mi SSW 12.7 mph - N/A   Clear
5:56 PM -17.9 °F -41.4 °F -24.0 °F 74% 30.02 in 10.0 mi SW 13.8 mph - N/A   Clear
6:56 PM -17.9 °F -42.2 °F -24.0 °F 74% 30.04 in 10.0 mi SW 15.0 mph - N/A   Clear
7:56 PM -19.8 °F -42.0 °F -26.0 °F 73% 30.05 in 10.0 mi SSW 11.5 mph - N/A   Clear
8:56 PM -26.0 °F -45.8 °F -31.9 °F 73% 30.06 in 10.0 mi South 8.1 mph - N/A   Clear
9:56 PM -17.0 °F -41.1 °F -22.9 °F 74% 30.06 in 10.0 mi SSW 15.0 mph - N/A   Clear
10:56 PM -17.9 °F -42.2 °F -24.0 °F 74% 30.07 in 10.0 mi SSW 15.0 mph - N/A   Clear
11:56 PM -27.9 °F -49.6 °F -35.0 °F 69% 30.08 in 10.0 mi South 9.2 mph - N/A   Clear